Location: B�rgermoos
(47.6500°N, 9.0667°E)
Time: 17:49:07
(UTC+00:00)

Vanguard 2 Rocket - Pass Details

Date: 06 August 2021
Orbit: 555 x 3324 km, 32.9° (Epoch: 15 September)

Event Time Altitude Azimuth Distance (km) Brightness Sun altitude
Rises 05:19:12 0° 223° (SW) 3,509 9.4 10.5°
Reaches altitude 10° 05:24:49 10° 178° (S) 2,071 8.7 11.4°
Maximum altitude 05:25:09 10° 174° (S) 2,043 8.7 11.5°
Drops below altitude 10° 05:25:30 10° 169° (S) 2,026 8.7 11.5°
Sets 05:30:02 0° 120° (ESE) 2,733 10.2 12.3°
